Home > Weather > Tulkarm > Past weeks

Flag for Palestinian Territories Weather for the Past 2 Weeks in Tulkarm, West Bank, Palestinian Territories

Now
59 °F

Passing clouds.


Feels Like: 57 °F
Forecast: 50 / 63 °F
Wind: 9 mph from Northeast

Location: Dov Airport

Current Time: Feb 9, 2016 at 7:58:23 PM

Latest Report: Feb 9, 2016 at 6:50 PM


Visibility: N/A

Pressure: 30.12 "Hg

Humidity: 48%

Dew point: 39 °F

Location of TulkarmLocation

Historic Weather in Tulkarm — Graph

°F

Tulkarm Temperature Yesterday

Maximum temperature yesterday: 57 °F (at 12:50 PM)
Minimum temperature yesterday: 52 °F (at 5:00 AM)
Average temperature yesterday: 55 °F

High & Low Weather Summary for the Past Weeks

 TemperatureHumidityPressure
High75 °F (Feb 4, 12:50 PM)94% (Feb 8, 6:50 AM)30.42 "Hg (Feb 8, 6:50 AM)
Low39 °F (Jan 28, 5:50 AM)22% (Feb 4, 12:50 PM)29.89 "Hg (Feb 7, 5:50 AM)
Average56 °F66%30.18 "Hg
* Reported Jan 25 6:50 PM — Feb 9 6:50 PM, Tulkarm, Weather by CustomWeather, © 2016

Note: Actual official high and low records may vary slightly from our data, if they occured in-between our weather recording intervals... More about our weather records

Advertising

Tulkarm Weather History for the Previous 24 Hours

 ConditionsComfort  
Time TempWeatherWind HumidityBarometerVisibility
6:50 PM
Tue, Feb 9
59 °FPassing clouds.9 mph48%30.12 "HgN/A
5:50 PM59 °FPassing clouds.9 mph55%30.12 "HgN/A
4:50 PM64 °FScattered clouds.6 mph37%30.12 "HgN/A
3:50 PM64 °FScattered clouds.10 mph43%30.12 "HgN/A
2:50 PM64 °FScattered clouds.12 mph46%30.09 "HgN/A
1:50 PM68 °FScattered clouds.5 mph33%30.09 "HgN/A
12:50 PM66 °FScattered clouds.3 mph35%30.12 "HgN/A
11:50 AM64 °FScattered clouds.5 mph37%30.15 "HgN/A
10:50 AM64 °FPassing clouds.6 mph46%30.18 "HgN/A
9:50 AM63 °FPassing clouds.7 mph49%30.21 "HgN/A
8:50 AM55 °FSunny.5 mph63%30.21 "Hg10 mi
7:50 AM52 °FSunny.6 mph77%30.21 "Hg10 mi
6:50 AM50 °FSunny.6 mph82%30.21 "Hg10 mi
5:50 AM50 °FPassing clouds.6 mph76%30.21 "HgN/A
10:50 PM
Mon, Feb 8
54 °FPassing clouds.5 mph88%30.24 "HgN/A
9:50 PM55 °FPassing clouds.5 mph82%30.24 "HgN/A
8:50 PM55 °FPassing clouds.5 mph77%30.21 "HgN/A
7:50 PM55 °FPassing clouds.3 mph82%30.21 "HgN/A
Weather by CustomWeather, © 2016

See weather overviewHow to use our weather pages